map of GDC home
GDC - Airport
Location
City:  Greenville, South Carolina, United States
Name:Donaldson Field
ICAO:KGYH
IATA:GDC
FAA LID:GYH

Details
Type:Airport (Part 139 Class IV)
Use:Public/Civil
Latitude:3445'30"N (34.758306)
Longitude:8222'35"W (-82.376416)
Datum:WGS 1984
Elevation:955 ft (291 m)
Variation:6.67W (WMM2015 magnetic declination)
-0.07 annual change
Runways:1
Longest:8000 × 150 ft (2438 × 45.5 m), paved

Time
Time Zone:UTC-5 (DST-4)
Local Time:

Weather
METAR:KGYH 192147Z 00000KT 2SM BR OVC005 13/13 A3035

Related Locations
Nearby:
Farthest:MQZ: 11444 mi / 18418 km
Margaret River [Margaret River Airport], WA, AU

Find:

   beyond  
but within

Other Information
Maps:
NOTAMs:
Links:
Sources:

  
flag of United States
flag of South Carolina
  

Airport Diagram

Airport diagram for GDC

Airport diagram PDF

Sectional Chart

Flight Planning
at skyvector.com

Satellite Image

Google Maps Satellite view

 

Copyright © 2004-2018 Karl L. Swartz. All rights reserved.
The Great Circle Mapper name and logo are trademarks of the Great Circle Mapper.
All other trademarks mentioned herein belong to their respective owners.
Please see credits for attibutions and further copyright information.

  Follow gcmap on Facebook Follow gcmap on Twitter Follow gcmap on Google+ GCmap on LinkedIn

hCard Microformat

Geo Microformat